カタログに戻る

OPS 4682 DEB

運用中PO
NORAD 38390·DEBRIS·🇺🇸 United States

打ち上げ Apr 3, 1965 から Vandenberg Space Force Base

Loading…

次のパス (今後24時間)

TLE

最新Source: Space-Track

元期: Sep 14, 2026, 13:46 UTC

1 38390U 65027CT  26257.57365736  .00000401  00000-0  13473-2 0  9992
2 38390  90.2378   0.8621 0032113 180.1735 179.9380 12.97801019624294

AllMySatでOPS 4682 DEBをリアルタイム追跡

Download on the App Store